• en Suisse
  • Liste des pays
  • À 7 jours
  • Température de l'eau
  • Carte satellitaire
  • Carte météo
  • Widgets météo
  • user-avatar
    Se connecter

    Météo par heure à Novinka

    Ce jour, 18 Août, Samedi

    Heure Température Précipitation Vent Pression Humidité
    00:00 +15°C° 0 mm 2 m/s 751 mmHg 92%
    01:00 +15°C° 0 mm 2 m/s 751 mmHg 94%
    02:00 +14°C° 0 mm 1 m/s 751 mmHg 95%
    03:00 +14°C° 0 mm 1 m/s 751 mmHg 95%
    04:00 +14°C° 0 mm 2 m/s 751 mmHg 96%
    05:00 +14°C° 0 mm 2 m/s 751 mmHg 96%
    06:00 +16°C° 0 mm 2 m/s 751 mmHg 89%
    07:00 +17°C° 0 mm 2 m/s 751 mmHg 82%
    08:00 +19°C° 0 mm 2 m/s 751 mmHg 75%
    09:00 +21°C° 0 mm 2 m/s 751 mmHg 70%
    10:00 +24°C° 0 mm 2 m/s 751 mmHg 64%
    11:00 +26°C° 0 mm 3 m/s 751 mmHg 59%
    12:00 +26°C° 0,2 mm 3 m/s 751 mmHg 60%
    13:00 +26°C° 0,2 mm 3 m/s 751 mmHg 60%
    14:00 +26°C° 0,2 mm 3 m/s 750 mmHg 61%
    15:00 +26°C° 0,5 mm 3 m/s 750 mmHg 67%
    16:00 +25°C° 0,5 mm 2 m/s 750 mmHg 73%
    17:00 +24°C° 0,5 mm 2 m/s 750 mmHg 79%
    18:00 +23°C° 0,4 mm 2 m/s 750 mmHg 84%
    19:00 +21°C° 0,4 mm 2 m/s 750 mmHg 89%
    20:00 +19°C° 0,4 mm 2 m/s 750 mmHg 94%
    21:00 +20°C° 0,1 mm 1 m/s 749 mmHg 94%
    22:00 +19°C° 0,1 mm 1 m/s 749 mmHg 95%
    23:00 +19°C° 0,1 mm 1 m/s 749 mmHg 96%

    Demain, 19 Août, Dimanche

    Heure Température Précipitation Vent Pression Humidité
    00:00 +18°C° 0,1 mm 2 m/s 749 mmHg 96%
    01:00 +17°C° 0,1 mm 2 m/s 749 mmHg 97%
    02:00 +17°C° 0,1 mm 2 m/s 749 mmHg 97%
    03:00 +17°C° 0 mm 2 m/s 749 mmHg 98%
    04:00 +17°C° 0 mm 2 m/s 749 mmHg 98%
    05:00 +16°C° 0 mm 2 m/s 749 mmHg 98%
    06:00 +17°C° 0 mm 2 m/s 749 mmHg 96%
    07:00 +19°C° 0 mm 2 m/s 749 mmHg 93%
    08:00 +20°C° 0 mm 2 m/s 749 mmHg 91%
    09:00 +21°C° 0,5 mm 2 m/s 749 mmHg 86%
    10:00 +22°C° 0,5 mm 3 m/s 749 mmHg 82%
    11:00 +25°C° 0,5 mm 3 m/s 748 mmHg 77%
    12:00 +25°C° 0,6 mm 3 m/s 748 mmHg 73%
    13:00 +25°C° 0,6 mm 3 m/s 748 mmHg 69%
    14:00 +26°C° 0,6 mm 3 m/s 748 mmHg 65%
    15:00 +25°C° 0,1 mm 3 m/s 748 mmHg 62%
    16:00 +25°C° 0,1 mm 3 m/s 748 mmHg 60%
    17:00 +25°C° 0,1 mm 2 m/s 748 mmHg 58%
    18:00 +23°C° 0 mm 2 m/s 748 mmHg 63%
    19:00 +20°C° 0 mm 2 m/s 748 mmHg 69%
    20:00 +18°C° 0 mm 2 m/s 748 mmHg 74%
    21:00 +17°C° 0 mm 2 m/s 748 mmHg 78%
    22:00 +17°C° 0 mm 2 m/s 748 mmHg 82%
    23:00 +16°C° 0 mm 2 m/s 748 mmHg 86%

    Après-demain, 20 Août, Lundi

    Heure Température Précipitation Vent Pression Humidité
    00:00 +16°C° 0 mm 1 m/s 748 mmHg 89%
    01:00 +16°C° 0 mm 1 m/s 748 mmHg 92%
    02:00 +16°C° 0 mm 1 m/s 748 mmHg 95%
    03:00 +16°C° 0 mm 1 m/s 748 mmHg 95%
    04:00 +16°C° 0 mm 1 m/s 748 mmHg 96%
    05:00 +16°C° 0 mm 1 m/s 748 mmHg 97%
    06:00 +17°C° 0 mm 2 m/s 748 mmHg 92%
    07:00 +18°C° 0 mm 2 m/s 748 mmHg 87%
    08:00 +19°C° 0 mm 2 m/s 748 mmHg 82%
    09:00 +20°C° 0,1 mm 3 m/s 747 mmHg 77%
    10:00 +21°C° 0,1 mm 3 m/s 747 mmHg 73%
    11:00 +22°C° 0,1 mm 3 m/s 747 mmHg 69%
    12:00 +24°C° 0,1 mm 3 m/s 747 mmHg 66%
    13:00 +25°C° 0,1 mm 3 m/s 747 mmHg 62%
    14:00 +25°C° 0,1 mm 3 m/s 746 mmHg 59%
    15:00 +25°C° 0,1 mm 3 m/s 746 mmHg 61%
    16:00 +25°C° 0,1 mm 3 m/s 746 mmHg 64%
    17:00 +25°C° 0,1 mm 2 m/s 746 mmHg 67%
    18:00 +23°C° 0,1 mm 2 m/s 745 mmHg 74%
    19:00 +20°C° 0,1 mm 2 m/s 745 mmHg 81%
    20:00 +19°C° 0,1 mm 2 m/s 745 mmHg 88%
    21:00 +19°C° 0 mm 2 m/s 745 mmHg 89%
    22:00 +18°C° 0 mm 2 m/s 744 mmHg 90%
    23:00 +18°C° 0 mm 3 m/s 744 mmHg 90%

    21 Août, Mardi

    Heure Température Précipitation Vent Pression Humidité
    00:00 +18°C° 0 mm 3 m/s 744 mmHg 90%
    01:00 +18°C° 0 mm 3 m/s 743 mmHg 90%
    02:00 +18°C° 0 mm 3 m/s 743 mmHg 89%
    03:00 +18°C° 0,2 mm 4 m/s 742 mmHg 89%
    04:00 +18°C° 0,2 mm 4 m/s 742 mmHg 88%
    05:00 +18°C° 0,2 mm 4 m/s 741 mmHg 88%
    06:00 +17°C° 0,3 mm 5 m/s 741 mmHg 88%
    07:00 +19°C° 0,3 mm 5 m/s 740 mmHg 88%
    08:00 +19°C° 0,3 mm 5 m/s 740 mmHg 89%
    09:00 +19°C° 0,7 mm 5 m/s 740 mmHg 88%
    10:00 +19°C° 0,7 mm 5 m/s 740 mmHg 88%
    11:00 +20°C° 0,7 mm 5 m/s 740 mmHg 88%
    12:00 +19°C° 0,8 mm 5 m/s 740 mmHg 85%
    13:00 +19°C° 0,8 mm 5 m/s 741 mmHg 82%
    14:00 +19°C° 0,8 mm 5 m/s 741 mmHg 79%
    15:00 +20°C° 0,1 mm 5 m/s 742 mmHg 72%
    16:00 +20°C° 0,1 mm 4 m/s 742 mmHg 65%
    17:00 +20°C° 0,1 mm 4 m/s 743 mmHg 57%
    18:00 +19°C° 0 mm 4 m/s 743 mmHg 61%
    19:00 +17°C° 0 mm 3 m/s 744 mmHg 65%
    20:00 +14°C° 0 mm 3 m/s 744 mmHg 69%
    21:00 +14°C° 0 mm 3 m/s 745 mmHg 71%
    22:00 +13°C° 0 mm 3 m/s 745 mmHg 72%
    23:00 +12°C° 0 mm 3 m/s 746 mmHg 74%

    22 Août, Mercredi

    Heure Température Précipitation Vent Pression Humidité
    00:00 +12°C° 0 mm 3 m/s 746 mmHg 76%
    01:00 +11°C° 0 mm 3 m/s 746 mmHg 79%
    02:00 +11°C° 0 mm 3 m/s 747 mmHg 81%
    03:00 +10°C° 0 mm 3 m/s 747 mmHg 84%
    04:00 +10°C° 0 mm 3 m/s 748 mmHg 86%
    05:00 +9°C° 0 mm 3 m/s 748 mmHg 88%
    06:00 +11°C° 0 mm 3 m/s 749 mmHg 83%
    07:00 +12°C° 0 mm 3 m/s 749 mmHg 78%
    08:00 +13°C° 0 mm 3 m/s 750 mmHg 73%
    09:00 +14°C° 0 mm 4 m/s 750 mmHg 66%
    10:00 +17°C° 0 mm 4 m/s 750 mmHg 59%
    11:00 +18°C° 0 mm 4 m/s 751 mmHg 52%
    12:00 +19°C° 0 mm 4 m/s 751 mmHg 49%
    13:00 +19°C° 0 mm 3 m/s 751 mmHg 46%
    14:00 +20°C° 0 mm 3 m/s 751 mmHg 43%
    15:00 +20°C° 0 mm 3 m/s 751 mmHg 46%
    16:00 +19°C° 0 mm 3 m/s 751 mmHg 48%
    17:00 +19°C° 0 mm 2 m/s 751 mmHg 50%
    18:00 +17°C° 0 mm 2 m/s 751 mmHg 57%
    19:00 +15°C° 0 mm 1 m/s 751 mmHg 64%
    20:00 +13°C° 0 mm 1 m/s 751 mmHg 71%
    21:00 +13°C° 0 mm 1 m/s 751 mmHg 72%
    22:00 +12°C° 0 mm 1 m/s 751 mmHg 73%
    23:00 +12°C° 0 mm 2 m/s 752 mmHg 74%

    23 Août, Jeudi

    Heure Température Précipitation Vent Pression Humidité
    00:00 +12°C° 0 mm 2 m/s 751 mmHg 75%
    01:00 +10°C° 0 mm 2 m/s 751 mmHg 77%
    02:00 +10°C° 0 mm 2 m/s 751 mmHg 78%
    03:00 +10°C° 0 mm 2 m/s 751 mmHg 79%
    04:00 +10°C° 0 mm 2 m/s 751 mmHg 81%
    05:00 +10°C° 0 mm 2 m/s 751 mmHg 82%
    06:00 +12°C° 0 mm 3 m/s 751 mmHg 76%
    07:00 +14°C° 0 mm 3 m/s 751 mmHg 70%
    08:00 +15°C° 0 mm 4 m/s 750 mmHg 64%
    09:00 +18°C° 0 mm 4 m/s 750 mmHg 59%
    10:00 +20°C° 0 mm 4 m/s 750 mmHg 54%
    11:00 +22°C° 0 mm 5 m/s 750 mmHg 49%
    12:00 +22°C° 0 mm 5 m/s 750 mmHg 49%
    13:00 +23°C° 0 mm 5 m/s 749 mmHg 48%
    14:00 +25°C° 0 mm 5 m/s 749 mmHg 47%
    15:00 +25°C° 0 mm 4 m/s 749 mmHg 51%
    16:00 +23°C° 0 mm 4 m/s 749 mmHg 54%
    17:00 +24°C° 0 mm 3 m/s 748 mmHg 58%
    18:00 +21°C° 0 mm 3 m/s 748 mmHg 64%
    19:00 +20°C° 0 mm 3 m/s 748 mmHg 70%
    20:00 +18°C° 0 mm 2 m/s 748 mmHg 77%
    21:00 +18°C° 0 mm 2 m/s 749 mmHg 78%
    22:00 +18°C° 0 mm 2 m/s 749 mmHg 80%
    23:00 +17°C° 0 mm 2 m/s 749 mmHg 82%
    Voir plus